Location: Unspecified
(0.0000°N, 0.0000°E)
Time: 15:43:37
(UTC+00:00)

Vanguard 3 - All Passes

Search period start: 18 September 2014 00:00
Search period end: 28 September 2014 00:00
Orbit: 507 x 3279 km, 33.4° (Epoch: 17 September)

Date Brightness Start Highest point End Pass type
(mag) Time Alt. Az. Time Alt. Az. Time Alt. Az.
18 Sep - 06:10:29 10° SW 06:15:35 72° SE 06:24:33 10° ENE daylight
18 Sep - 08:22:46 10° W 08:29:32 31° NNW 08:40:25 10° NE daylight
18 Sep - 10:40:23 10° NW 10:47:47 17° N 10:57:09 10° NNE daylight
18 Sep - 12:59:25 10° NNW 13:10:16 18° NNE 13:22:00 10° NE daylight
18 Sep - 15:15:07 10° NNW 15:32:14 34° NNE 15:46:36 10° E daylight
18 Sep - 17:31:21 10° NW 17:50:41 74° NE 18:02:50 10° ESE daylight
18 Sep - 19:51:17 10° WNW 20:05:22 40° SW 20:13:55 10° SSE visible
19 Sep - 05:00:12 10° SSW 05:04:05 29° SE 05:09:44 10° E visible
19 Sep - 07:10:34 10° W 07:16:17 45° NNW 07:26:11 10° NE daylight
19 Sep - 09:25:52 10° NW 09:32:27 19° NNW 09:41:27 10° NNE daylight
19 Sep - 11:45:11 10° NNW 11:53:06 15° N 12:02:18 10° NE daylight
19 Sep - 14:01:10 10° NNW 14:15:46 25° NNE 14:30:01 10° ENE daylight
19 Sep - 16:16:24 10° NW 16:35:46 54° NNE 16:49:52 10° ESE daylight
19 Sep - 18:34:14 10° WNW 18:52:14 67° SW 19:03:00 10° SE visible
19 Sep - 20:58:24 10° WSW 21:05:59 18° SW 21:11:35 10° S visible
20 Sep - 05:59:09 10° WSW 06:03:56 83° NW 06:12:10 10° NE daylight
20 Sep - 08:12:19 10° WNW 08:18:11 23° NNW 08:26:56 10° NNE daylight
20 Sep - 10:30:46 10° NNW 10:36:39 14° N 10:43:44 10° NNE daylight
20 Sep - 12:47:40 10° NNW 12:58:51 19° NNE 13:11:09 10° NE daylight
20 Sep - 15:02:10 10° NW 15:20:04 39° NNE 15:35:28 10° E daylight
20 Sep - 17:18:19 10° NW 17:38:13 85° NE 17:51:12 10° SE daylight
20 Sep - 19:39:05 10° W 19:53:06 35° SW 20:02:02 10° SSE visible
21 Sep - 04:48:29 10° SSW 04:52:22 39° SE 04:58:05 10° ENE visible
21 Sep - 06:59:45 10° W 07:04:52 32° NNW 07:13:08 10° NE daylight
21 Sep - 09:16:17 10° NW 09:21:16 14° N 09:27:32 10° NNE daylight
21 Sep - 11:34:31 10° NNW 11:41:57 14° N 11:50:33 10° NE daylight
21 Sep - 13:48:36 10° NNW 14:03:51 29° NNE 14:19:07 10° ENE daylight
21 Sep - 16:03:22 10° NW 16:23:18 63° NE 16:38:20 10° ESE daylight
21 Sep - 18:21:33 10° WNW 18:39:45 58° SW 18:51:11 10° SE visible
21 Sep - 20:47:22 10° WSW 20:54:07 15° SW 20:59:22 10° S visible
22 Sep - 03:39:13 10° S 03:41:00 13° SE 03:42:59 10° ESE visible
22 Sep - 05:47:58 10° WSW 05:52:25 56° NNW 05:59:41 10° NE daylight
22 Sep - 08:02:19 10° NW 08:06:58 17° NNW 08:13:14 10° NNE daylight
22 Sep - 10:21:32 10° NNW 10:25:35 12° N 10:30:11 10° NNE daylight
22 Sep - 12:35:41 10° NNW 12:47:17 21° NNE 13:00:20 10° ENE daylight
22 Sep - 14:49:18 10° NW 15:07:42 46° NNE 15:24:06 10° E daylight
22 Sep - 17:05:24 10° NW 17:25:36 84° SW 17:39:24 10° SE daylight
22 Sep - 19:27:05 10° W 19:40:50 30° SW 19:50:04 10° SSE visible
23 Sep - 04:36:54 10° SW 04:40:44 59° SE 04:46:17 10° ENE visible
23 Sep - 06:49:13 10° WNW 06:53:35 22° NNW 06:59:57 10° NNE daylight
23 Sep - 09:08:01 10° NNW 09:10:11 11° N 09:12:34 10° N daylight
23 Sep - 11:23:27 10° NNW 11:30:43 14° NNE 11:39:11 10° NE daylight
23 Sep - 13:36:02 10° NNW 13:51:43 33° NNE 14:07:59 10° E daylight
23 Sep - 15:50:27 10° NW 16:10:39 72° NE 16:26:36 10° ESE daylight
23 Sep - 18:09:02 10° WNW 18:27:11 50° SW 18:39:14 10° SE visible
23 Sep - 20:36:37 10° WSW 20:42:21 13° SW 20:47:02 10° S visible
24 Sep - 03:26:43 10° S 03:29:24 19° SE 03:32:25 10° E visible
24 Sep - 05:36:59 10° W 05:41:01 37° NNW 05:47:07 10° NE daylight
24 Sep - 07:53:18 10° NNW 07:55:50 12° N 07:58:46 10° N daylight
24 Sep - 10:13:24 10° N 10:14:34 10° N 10:15:46 10° NNE daylight
24 Sep - 12:23:32 10° NNW 12:35:32 23° NNE 12:49:25 10° ENE daylight
24 Sep - 14:36:31 10° NW 14:55:08 52° NE 15:12:29 10° ESE daylight
24 Sep - 16:52:40 10° WNW 17:12:52 74° SW 17:27:27 10° SE daylight
24 Sep - 19:15:17 10° W 19:28:38 27° SW 19:38:01 10° SSE visible
25 Sep - 04:25:27 10° SW 04:29:13 88° NW 04:34:23 10° NE visible
25 Sep - 06:39:13 10° NW 06:42:23 15° NNW 06:46:25 10° NNE daylight
25 Sep - 11:11:59 10° N 11:19:23 15° NNE 11:28:09 10° NE daylight
25 Sep - 13:23:29 10° NNW 13:39:23 37° NNE 13:56:35 10° E daylight
25 Sep - 15:37:41 10° NW 15:57:51 81° NE 16:14:41 10° ESE daylight
25 Sep - 17:56:43 10° WNW 18:14:37 44° SW 18:27:11 10° SSE visible
25 Sep - 20:26:11 10° SW 20:30:42 12° SSW 20:34:36 10° SSW visible
26 Sep - 03:14:38 10° SSW 03:17:51 28° SE 03:21:23 10° E visible
26 Sep - 05:26:15 10° W 05:29:42 23° NNW 05:34:23 10° NNE visible
26 Sep - 12:11:18 10° NNW 12:23:36 25° NNE 12:38:20 10° ENE daylight
26 Sep - 14:23:51 10° NW 14:42:24 60° NE 15:00:39 10° ESE daylight
26 Sep - 16:40:06 10° WNW 17:00:04 66° SW 17:15:22 10° SE daylight
26 Sep - 19:03:44 10° W 19:16:30 24° SW 19:25:55 10° SSE visible
27 Sep - 02:06:02 10° SSE 02:06:07 10° SSE 02:06:12 10° SSE night (unlit)
27 Sep - 04:14:10 10° WSW 04:17:46 52° NNW 04:22:21 10° NE visible
27 Sep - 11:00:11 10° N 11:07:55 16° NNE 11:17:15 10° NE daylight
27 Sep - 13:11:00 10° NNW 13:26:53 42° NE 13:44:56 10° E daylight
27 Sep - 15:25:04 10° NW 15:44:57 89° SW 16:02:34 10° SE daylight
27 Sep - 17:44:37 10° W 18:02:05 39° SW 18:15:02 10° SSE visible
27 Sep - 20:16:02 10° SW 20:19:11 11° SSW 20:22:03 10° SSW visible
